Simultaneous Nadir Overpasses (SNOs) Predictions

Prediction of SNOs between AQUA and METOP-C Satellite Orbit:

Table of predicted SNOs for the next 14.0 days since TLE Epoch: 5/28/2022
Index Date (AQUA) Time (AQUA) Lat,Lon (AQUA) SZA (AQUA ) Date (METOP-C) Time (METOP-C) Lat,Lon (METOP-C) SZA (METOP-C ) Distance(km) Time Diff (sec)
1 05/30/2022 07:13:23 73.89, 66.28 52.08 05/30/2022 07:12:40 73.89, 66.36 52.09 2.48 43
2 05/30/2022 08:02:49 -73.92,-126.14 127.89 05/30/2022 08:03:21 -73.94,-126.19 127.87 2.77 32
3 06/02/2022 01:57:37 -73.64, -34.22 128.57 06/02/2022 01:56:26 -73.58, -35.29 128.58 33.98 71
4 06/02/2022 02:47:09 73.90, 132.84 51.71 06/02/2022 02:46:59 73.90, 132.78 51.71 1.76 10
5 06/02/2022 03:36:36 -73.98, -59.70 128.22 06/02/2022 03:37:40 -73.96, -59.75 128.25 3.19 64
6 06/04/2022 21:31:26 -73.88, 31.81 128.65 06/04/2022 21:30:38 -73.89, 31.84 128.64 0.93 48
7 06/04/2022 22:20:54 73.94,-160.68 51.41 06/04/2022 22:21:16 73.94,-160.69 51.41 0.59 22
8 06/07/2022 16:15:34 73.31, -68.02 50.47 06/07/2022 16:14:27 73.25, -70.52 50.50 80.52 67
9 06/07/2022 17:05:11 -73.91, 98.33 128.91 06/07/2022 17:04:56 -73.93, 98.37 128.88 2.69 15
10 06/07/2022 17:54:39 73.97, -94.17 51.16 06/07/2022 17:55:34 73.98, -94.19 51.16 0.89 55
11 06/10/2022 11:49:29 73.89, -2.69 50.85 06/10/2022 11:48:33 73.88, -2.66 50.85 1.58 56
12 06/10/2022 12:38:56 -73.97, 164.78 129.08 06/10/2022 12:39:14 -73.97, 164.88 129.08 2.93 18



Historial Predications of SNOs between AQUA and METOP-C
